sat.trackr.live / text

‹ back to catalog

STARLINK-35436

NORAD 65932 · 2025-225Y

PAYLOAD ACTIVE UNKNOWN

§ Identity

Operator
Country
US
Launch date
2025-10-08
Launch site
AFWTR
Launch vehicle
Mass (kg)
RCS (m²)

Purposes: comms

External: N2YO · Heavens-Above · Gunter

§ Orbital elements

Epoch: 2026-05-24T19:25:45.154560Z

Period
94.11 min
Inclination
53.1589°
Eccentricity
0.0001266
Mean motion
15.30201303 rev/d
Perigee alt
474.3 km
Apogee alt
476.1 km
Semi-major
6,853.3 km
B*
8.2385e-4
RAAN
172.0157°
Arg perigee
89.7594°
Mean anomaly
270.3551°
Rev number
3,606

§ Raw data

STARLINK-354361 65932U 25225Y   26144.80955040  .00024121  00000+0  82385-3 0  99972 65932  53.1589 172.0157 0001266  89.7594 270.3551 15.30201303 36064

JSON: /api/v1/satellites/65932 · /tle

For live sub-satellite position, see the globe view (requires WebGL).

§ Visibility from observer

Set your observer location to see the next 7 days of passes ≥ 10°. The values pass through the URL so the page stays shareable.

No JS? Fill the form by hand. The geolocation button needs JavaScript.